Location: Newark
(46.7000°N, 60.6000°W)
Time: 04:25:10
(UTC+00:00)

A-11 Canister half - Pass Details

Date: 27 October 2020
Orbit: 1525 x 1683 km, 47.3° (Epoch: 23 November)

Event Time Altitude Azimuth Distance (km) Brightness Sun altitude
Rises 01:07:02 0° 291° (WNW) 4,689 12.3 -42.5°
Reaches altitude 10° 01:10:14 10° 286° (WNW) 3,698 11.6 -43.0°
Enters shadow 01:16:38 39° 250° (WSW) 2,154 9.8 -43.9°
Maximum altitude 01:18:51 44° 218° (SW) 1,999 - -44.2°
Drops below altitude 10° 01:27:30 10° 150° (SSE) 3,714 - -45.4°
Sets 01:30:44 0° 144° (SE) 4,711 - -45.8°
